Find OneWeb SL0366

NORAD ID: 49292 Int'l Des: 2021-090 Owner: ONEWEBN Country: UK Constellation: oneweb operational
LEOCIRCULARPOLARONEWEB_TYPE

Live Position

Loading 3D Globe...

About OneWeb SL0366

Description loading...

Upcoming Passes

Passes for default location (London). Set your location on the main map for personalized predictions.

Altitude History

Loading altitude history...

Two-Line Element Set

1 49292U 21090P 26125.50545377 -.00000218 00000-0 -62362-3 0 9995
2 49292 87.8920 298.2245 0001741 94.5305 265.6024 13.14503232221951
Epoch: May 5, 2026 • Age: 22 hours

Current Status

Altitude 1235.6 km
Velocity 7.24 km/s
Sub-Earth Point -82.55°S, 86.95°W
Launch Date Oct 14, 2021
Age 4.5 years
Type internet

Technical Details

Classification Payload
Mass 148.00 kg
Dry Mass 140.00 kg
Total Mass 148.00 kg
Length 1.30 m
Diameter 1.00 m
Span 5.00 m
Shape Trapezoid+2 pan
Manufacturer ONEWUS
Bus Type ARROW
Phase Status In Orbit
Owner/State ONEWEBN/UK

Most Searched